Date String (YYYY-MM-DD hh:mm:ss) UTC,Instrument flags,Ambient pressure (hPa),Sample flow (lpm),Bypass flow (lpm),Sample temperature (°C),Ambient temperature (°C),ASC tube jacket temperature (°C),LED temperature (°C),Box temperature (°C),Sample RH (%),Span deviation,Mass concentration (μg/m³),Mass concentration (μg/m³),Mass concentration (μg/m³)
DateTimeUTC,F1_M11,P_M11,Q1_M11,Q2_M11,T1_M11,T2_M11,T3_M11,T4_M11,T5_M11,U1_M11,ZSPAN_M11,X0_M11,X2_M11,X1_M11
2023-04-10 21:00:00,,0836.6,4.99,0.00,28.5,27.3,00.0,36.7,30.1,08.7,0000.0,0012.31,0004.37,0002.66
2023-04-10 21:01:00,,0836.6,5.00,0.00,28.5,27.3,00.0,36.8,30.1,08.5,0000.0,0012.09,0004.42,0002.62
2023-04-10 21:02:00,,0836.6,5.00,0.00,28.5,27.3,00.0,36.8,30.1,08.5,0000.0,0012.04,0004.47,0002.60
2023-04-10 21:03:00,,0836.6,5.01,0.00,28.6,27.4,00.0,36.8,30.1,08.7,0000.0,0012.25,0004.45,0002.60
2023-04-10 21:04:00,,0836.6,5.00,0.00,28.6,27.4,00.0,36.8,30.1,09.0,0000.0,0012.26,0004.52,0002.57
2023-04-10 21:05:00,,0836.6,5.01,0.00,28.6,27.4,00.0,36.8,30.1,08.7,0000.0,0012.85,0004.57,0002.55
2023-04-10 21:06:00,,0836.6,4.99,0.00,28.6,27.4,00.0,36.8,30.1,08.9,0000.0,0014.02,0004.61,0002.55
2023-04-10 21:07:00,,0836.6,4.99,0.00,28.6,27.4,00.0,36.8,30.2,08.8,0000.0,0013.51,0004.62,0002.52
2023-04-10 21:08:00,,0836.6,5.00,0.00,28.6,27.5,00.0,36.8,30.2,08.7,0000.0,0013.33,0004.59,0002.50
2023-04-10 21:09:00,,0836.5,4.98,0.00,28.7,27.5,00.0,36.9,30.2,08.6,0000.0,0014.39,0004.51,0002.47
2023-04-10 21:10:00,,0836.5,4.99,0.00,28.7,27.5,00.0,36.9,30.2,08.4,0000.0,0015.35,0004.46,0002.46
2023-04-10 21:11:00,,0836.5,5.00,0.00,28.7,27.5,00.0,36.9,30.2,08.6,0000.0,0015.79,0004.38,0002.44
2023-04-10 21:12:00,,0836.5,5.01,0.00,28.7,27.5,00.0,36.9,30.2,08.4,0000.0,0015.78,0004.36,0002.42
2023-04-10 21:13:00,,0836.5,5.00,0.00,28.7,27.5,00.0,36.9,30.3,08.5,0000.0,0016.14,0004.31,0002.41
2023-04-10 21:14:00,,0836.5,5.00,0.00,28.7,27.5,00.0,36.9,30.3,08.4,0000.0,0016.14,0004.34,0002.39
2023-04-10 21:15:00,,0836.4,5.00,0.00,28.8,27.6,00.0,37.0,30.3,08.5,0000.0,0016.21,0004.34,0002.41
2023-04-10 21:16:00,,0836.5,5.00,0.00,28.8,27.6,00.0,37.0,30.3,08.2,0000.0,0016.65,0004.29,0002.40
2023-04-10 21:17:00,,0836.4,5.00,0.00,28.8,27.6,00.0,37.0,30.3,08.2,0000.0,0015.70,0004.23,0002.37
2023-04-10 21:18:00,,0836.4,5.00,0.00,28.8,27.6,00.0,37.0,30.3,08.2,0000.0,0015.37,0004.21,0002.36
2023-04-10 21:19:00,,0836.4,5.00,0.00,28.8,27.6,00.0,37.0,30.3,08.1,0000.0,0015.27,0004.22,0002.36
2023-04-10 21:20:00,,0836.4,5.00,0.00,28.8,27.6,00.0,37.0,30.4,08.1,0000.0,0015.12,0004.22,0002.34
2023-04-10 21:21:00,,0836.4,5.00,0.00,28.8,27.6,00.0,37.0,30.4,08.2,0000.0,0014.09,0004.21,0002.31
2023-04-10 21:22:00,,0836.4,5.01,0.00,28.9,27.7,00.0,37.1,30.4,08.2,0000.0,0013.96,0004.22,0002.30
2023-04-10 21:23:00,,0836.4,5.00,0.00,28.9,27.7,00.0,37.1,30.4,08.1,0000.0,0014.06,0004.21,0002.31
2023-04-10 21:24:00,,0836.4,4.99,0.00,28.9,27.7,00.0,37.1,30.5,08.2,0000.0,0013.62,0004.20,0002.34
2023-04-10 21:25:00,,0836.4,5.00,0.00,28.9,27.7,00.0,37.1,30.5,08.2,0000.0,0013.26,0004.14,0002.33
2023-04-10 21:26:00,,0836.3,5.00,0.00,28.9,27.7,00.0,37.1,30.4,08.1,0000.0,0012.83,0004.10,0002.30
2023-04-10 21:27:00,,0836.2,5.00,0.00,28.9,27.7,00.0,37.1,30.4,08.1,0000.0,0012.10,0004.10,0002.30
2023-04-10 21:28:00,,0836.2,5.01,0.00,28.9,27.7,00.0,37.1,30.5,08.1,0000.0,0012.46,0004.14,0002.31
2023-04-10 21:29:00,,0836.2,5.00,0.00,28.9,27.7,00.0,37.2,30.5,08.1,0000.0,0013.14,0004.21,0002.31
2023-04-10 21:30:00,,0836.2,4.99,0.00,29.0,27.7,00.0,37.2,30.5,08.1,0000.0,0014.37,0004.20,0002.30
2023-04-10 21:31:00,,0836.2,5.00,0.00,29.0,27.8,00.0,37.2,30.5,08.2,0000.0,0014.15,0004.24,0002.31
2023-04-10 21:32:00,,0836.2,5.00,0.00,29.0,27.8,00.0,37.2,30.5,08.1,0000.0,0014.03,0004.25,0002.30
2023-04-10 21:33:00,,0836.3,5.00,0.00,29.0,27.8,00.0,37.2,30.5,08.2,0000.0,0013.70,0004.23,0002.29
2023-04-10 21:34:00,,0836.2,5.00,0.00,29.0,27.8,00.0,37.3,30.5,08.3,0000.0,0013.67,0004.23,0002.28
2023-04-10 21:35:00,,0836.2,5.01,0.00,29.0,27.9,00.0,37.3,30.6,08.2,0000.0,0013.54,0004.23,0002.27
2023-04-10 21:36:00,,0836.2,5.01,0.00,29.0,27.9,00.0,37.3,30.6,08.2,0000.0,0013.72,0004.26,0002.27
2023-04-10 21:37:00,,0836.2,5.01,0.00,29.1,27.9,00.0,37.3,30.6,08.2,0000.0,0013.85,0004.25,0002.28
2023-04-10 21:38:00,,0836.2,5.00,0.00,29.1,27.9,00.0,37.3,30.6,08.1,0000.0,0013.55,0004.25,0002.29
2023-04-10 21:39:00,,0836.2,5.00,0.00,29.1,27.9,00.0,37.3,30.6,08.2,0000.0,0012.89,0004.22,0002.27
2023-04-10 21:40:00,,0836.2,5.00,0.00,29.1,27.9,00.0,37.3,30.6,08.0,0000.0,0012.59,0004.14,0002.26
2023-04-10 21:41:00,,0836.1,5.00,0.00,29.1,27.9,00.0,37.4,30.6,08.0,0000.0,0012.67,0004.16,0002.25
2023-04-10 21:42:00,,0836.1,4.98,0.00,29.1,28.0,00.0,37.4,30.7,08.2,0000.0,0013.51,0004.15,0002.26
2023-04-10 21:43:00,,0836.1,4.99,0.00,29.1,28.0,00.0,37.4,30.7,08.3,0000.0,0013.55,0004.13,0002.27
2023-04-10 21:44:00,,0836.1,4.97,0.00,29.2,28.0,00.0,37.4,30.7,08.1,0000.0,0014.00,0004.13,0002.27
2023-04-10 21:45:00,,0836.1,4.99,0.00,29.2,28.0,00.0,37.4,30.7,08.2,0000.0,0014.42,0004.08,0002.25
2023-04-10 21:46:00,,0836.1,5.01,0.00,29.2,28.0,00.0,37.4,30.7,08.1,0000.0,0014.83,0004.08,0002.23
2023-04-10 21:47:00,,0836.1,5.01,0.00,29.2,28.0,00.0,37.4,30.8,08.1,0000.0,0016.17,0004.05,0002.21
2023-04-10 21:48:00,,0836.1,4.99,0.00,29.2,28.0,00.0,37.4,30.7,08.2,0000.0,0016.51,0003.98,0002.19
2023-04-10 21:49:00,,0836.1,5.00,0.00,29.2,28.0,00.0,37.5,30.7,08.2,0000.0,0016.67,0003.97,0002.16
2023-04-10 21:50:00,,0836.1,5.00,0.00,29.2,28.0,00.0,37.5,30.8,08.0,0000.0,0016.40,0003.94,0002.15
2023-04-10 21:51:00,,0836.1,5.01,0.00,29.3,28.0,00.0,37.5,30.8,08.0,0000.0,0015.96,0003.87,0002.14
2023-04-10 21:52:00,,0836.1,5.01,0.00,29.3,28.1,00.0,37.5,30.8,08.0,0000.0,0015.41,0003.80,0002.15
2023-04-10 21:53:00,,0836.1,5.00,0.00,29.3,28.1,00.0,37.5,30.8,07.9,0000.0,0014.04,0003.78,0002.16
2023-04-10 21:54:00,,0836.1,5.01,0.00,29.3,28.1,00.0,37.5,30.8,08.1,0000.0,0013.74,0003.79,0002.17
2023-04-10 21:55:00,,0836.0,5.00,0.00,29.3,28.1,00.0,37.6,30.8,08.1,0000.0,0013.99,0003.82,0002.18
2023-04-10 21:56:00,,0835.9,5.00,0.00,29.3,28.2,00.0,37.6,30.9,08.1,0000.0,0013.39,0003.86,0002.21
2023-04-10 21:57:00,,0835.9,5.00,0.00,29.3,28.2,00.0,37.6,30.9,08.0,0000.0,0013.75,0003.90,0002.23
2023-04-10 21:58:00,,0836.0,4.99,0.00,29.4,28.2,00.0,37.6,30.9,08.0,0000.0,0012.30,0003.85,0002.23
2023-04-10 21:59:00,,0836.0,5.00,0.00,29.4,28.2,00.0,37.6,30.9,08.3,0000.0,0011.09,0003.83,0002.22
